Wind_Speed
25 27 28 25 23 22 20 19 16 17 18 15 15 14 13 10 7 10 17 24 19 11 18 22 21 15 9 15 12 8 12 9 8 7 6 5 2 1 2 1 2 6 2 6 9 10 13
27 26 25 25 22 22 26 24 19 17 16 14 12 12 9 6 8 12 20 20 18 18 12 17 16 11 7 17 7 7 9 9 12 9 9 6 3 3 3 1 4 2 6 10 8 9 9
23 22 24 25 22 20 22 23 21 19 15 14 16 12 9 7 10 19 23 31 25 23 22 20 21 18 23 12 7 9 9 9 9 9 8 7 4 2 1 1 2 4 8 8 9 7 5
26 25 26 25 19 18 22 21 17 14 11 11 9 8 6 9 14 26 23 37 28 27 21 15 13 8 10 9 7 7 7 9 10 8 6 5 7 4 3 1 3 5 4 6 6 3 2
26 26 30 30 25 23 25 27 22 17 12 10 8 8 10 14 26 27 24 23 24 23 18 14 10 8 8 8 5 6 7 5 6 7 7 5 4 2 1 3 5 5 8 7 6 3 3
27 28 29 29 29 29 26 24 22 24 23 22 18 19 23 26 30 31 32 30 26 18 15 13 7 6 5 5 3 4 5 7 4 3 1 2 1 1 1 3 4 6 8 7 10 2 11
26 28 26 27 28 26 27 28 23 25 27 24 28 31 26 29 37 32 33 27 12 11 22 14 11 17 11 6 5 5 6 5 3 3 1 3 3 4 2 4 4 4 9 12 14 9 11
24 24 25 24 25 27 29 31 28 23 24 37 35 25 29 37 33 34 25 10 13 15 18 16 16 13 7 3 4 7 7 2 4 4 1 3 4 3 1 1 3 3 9 11 6 5 15
21 22 23 24 23 22 24 25 26 25 27 26 25 28 34 26 17 13 15 23 23 13 7 7 6 6 4 4 4 5 6 2 4 5 5 2 3 2 3 4 7 8 8 9 8 17 17
20 19 20 21 23 23 20 17 20 19 16 17 16 15 21 15 19 19 20 15 8 4 3 5 4 4 4 1 2 3 3 2 2 4 3 1 3 2 4 7 6 8 6 6 9 10 5
16 17 17 18 19 20 18 16 15 16 13 13 12 16 17 8 17 12 8 5 2 1 4 4 3 2 3 2 1 1 3 2 4 5 2 1 1 3 6 4 2 5 3 9 10 8 9
15 16 18 19 21 22 18 15 14 17 18 16 11 8 17 21 14 9 9 6 3 1 4 3 3 2 3 1 1 3 2 2 1 2 1 4 1 3 4 6 7 10 10 9 3 2 4
13 13 16 19 20 22 20 17 15 14 15 17 14 13 16 12 4 7 14 4 3 4 2 1 1 1 1 5 3 6 6 4 5 5 4 5 5 2 5 5 3 3 5 2 2 3 3
13 11 13 17 20 20 18 14 13 12 13 13 14 11 9 6 6 9 8 1 7 1 2 2 2 1 5 7 3 5 5 3 3 3 4 3 3 5 9 3 2 2 2 3 5 5 9
13 10 10 13 16 18 18 14 9 7 6 7 7 6 3 3 3 5 4 5 2 2 1 1 1 3 3 2 3 4 2 3 2 1 4 4 1 2 6 3 3 3 3 4 4 9 5
13 12 8 9 12 14 17 18 15 9 6 8 4 2 6 2 2 6 5 4 2 1 2 2 3 2 3 3 2 1 1 3 1 2 3 2 6 3 3 3 8 7 6 3 3 5 5
12 11 11 9 8 8 11 16 17 14 8 6 5 2 5 2 4 3 4 4 3 2 1 2 2 2 3 3 4 4 2 3 2 1 4 4 1 0 3 7 3 5 4 5 3 5 4
10 11 10 10 10 9 10 13 18 15 12 3 3 1 6 3 1 3 4 7 7 8 5 3 2 3 3 3 5 4 3 2 2 2 4 2 4 6 6 4 2 5 6 4 3 1 6
12 9 10 9 10 12 11 11 14 13 13 7 3 1 4 1 1 3 4 5 3 5 7 6 7 6 4 3 4 5 4 2 4 3 2 2 2 6 4 3 3 5 8 8 5 4 8
10 11 9 9 9 10 11 11 11 12 12 6 3 2 1 3 1 0 3 4 4 6 5 5 3 5 6 6 8 5 5 2 3 5 2 1 6 9 8 11 8 11 10 10 9 5 7
9 11 10 9 8 9 9 9 10 11 12 5 3 1 2 1 3 2 1 3 7 5 6 7 5 12 8 4 5 6 6 6 7 3 4 4 7 12 17 22 20 21 21 19 18 18 9
11 10 12 10 10 8 8 8 8 10 10 6 3 3 1 1 1 3 5 7 9 5 5 6 8 5 9 7 6 6 6 6 7 7 6 4 5 12 16 16 11 17 19 19 21 22 24
14 11 10 12 10 10 9 8 8 8 8 3 5 3 2 3 3 3 3 3 5 5 7 6 5 6 9 11 12 14 15 17 12 7 8 5 4 7 6 8 16 15 17 21 13 12 18
13 12 10 11 12 12 10 10 9 9 6 4 3 2 4 2 5 5 3 3 7 9 6 3 5 6 2 7 16 19 17 20 20 19 17 9 6 5 7 12 4 2 3 4 17 12 16
13 13 12 10 11 12 13 10 11 10 9 6 3 1 2 5 6 9 10 9 8 9 9 12 12 10 7 10 5 7 4 4 5 12 14 15 10 5 4 6 14 9 4 5 6 3 10
17 14 13 13 11 12 13 12 12 11 11 10 7 4 2 6 2 7 5 6 6 7 6 7 5 7 3 4 3 3 3 3 3 3 3 9 12 6 2 5 5 4 4 3 2 5 7
20 18 15 15 14 14 15 14 13 13 12 13 13 8 5 7 11 7 8 6 4 4 4 2 4 4 6 4 4 5 5 1 3 4 6 4 7 14 11 7 10 2 8 6 3 3 10
25 22 20 17 17 16 16 16 16 15 14 14 17 13 13 9 15 16 15 11 6 7 5 3 2 5 6 5 4 4 4 3 3 5 5 10 6 6 7 7 10 12 7 6 3 3 3
29 28 25 20 18 19 17 16 16 17 16 16 20 16 16 19 14 13 14 17 18 18 12 7 4 1 7 5 3 3 4 4 5 4 8 6 9 3 10 6 1 15 11 12 7 7 9
Wind_Direction
30 33 30 37 42 46 44 46 62 78 104 114 123 129 132 121 99 119 145 144 172 170 132 139 141 138 93 84 72 27 38 36 47 65 69 71 93 122 172 136 231 257 294 276 271 280 281
38 33 32 39 38 44 46 62 76 91 96 106 118 125 111 86 96 125 133 148 168 171 197 142 132 122 110 87 61 42 44 44 55 64 66 57 77 60 109 121 261 357 280 272 275 271 271
32 34 37 35 33 42 55 60 68 80 89 93 114 115 113 100 115 144 128 151 143 138 149 133 114 94 81 86 84 57 55 60 60 65 66 64 62 343 129 166 309 295 291 271 232 258 266
30 33 37 32 36 46 56 53 66 75 80 98 124 124 113 108 124 147 118 123 132 131 130 127 98 73 78 95 80 46 50 46 46 52 58 79 77 76 23 302 249 264 261 283 120 135 144
31 39 42 44 60 68 60 56 68 65 71 86 105 121 116 117 131 138 137 121 124 116 119 118 67 84 98 85 72 48 44 31 28 34 47 51 53 72 235 274 259 199 297 315 326 102 308
40 52 50 53 62 66 59 56 60 65 69 76 94 104 119 129 131 125 136 122 117 105 100 79 57 71 113 108 88 51 25 30 29 10 49 36 38 204 298 329 318 337 317 295 288 228 288
45 52 51 54 58 56 50 56 72 67 76 87 95 102 120 116 130 122 118 111 120 62 61 68 64 88 106 109 65 28 7 3 3 49 350 53 73 60 41 6 350 326 292 292 293 330 315
54 52 52 54 54 54 62 67 67 73 78 85 97 116 108 109 132 136 139 93 89 116 76 64 69 77 85 94 63 20 15 35 38 63 126 166 94 73 81 285 278 251 295 311 320 324 318
53 54 56 55 51 53 62 67 65 72 86 91 77 112 112 116 129 126 124 123 126 118 95 69 54 49 38 39 49 18 18 12 23 35 32 49 90 155 262 275 284 286 304 327 324 322 287
54 51 53 52 51 50 48 59 78 83 79 59 61 100 152 114 108 111 107 115 114 102 102 26 12 22 11 329 88 15 12 26 66 21 6 85 114 261 289 293 304 318 31 330 315 325 311
43 47 44 43 39 38 42 53 72 84 76 70 87 110 124 127 122 107 85 18 343 100 79 6 27 341 352 7 319 341 1 14 41 354 314 46 299 293 289 347 338 316 338 304 290 289 306
33 38 44 45 38 37 38 56 71 80 83 83 102 117 134 127 111 80 22 7 95 19 69 342 332 329 232 33 81 358 30 36 23 352 269 274 279 273 305 315 275 302 314 305 228 241 260
23 35 34 33 42 40 45 57 69 80 87 94 105 133 155 153 111 13 355 56 40 48 225 46 34 321 349 28 48 5 359 13 4 8 354 302 215 232 243 279 165 356 307 251 233 218 290
35 24 34 32 34 47 45 56 62 67 76 85 107 130 182 219 285 327 351 140 65 194 91 167 288 343 33 7 50 346 325 340 106 344 310 320 228 209 166 262 298 337 10 339 302 333 315
32 33 22 30 33 37 49 38 34 38 42 53 81 103 135 210 270 338 294 51 76 65 39 28 56 10 47 53 307 326 307 330 2 226 328 326 269 171 207 248 250 87 275 344 275 257 269
21 22 22 16 29 37 40 42 30 8 352 7 3 27 21 28 50 78 74 81 56 18 8 333 10 360 342 21 292 255 264 89 281 254 266 6 289 247 132 232 226 248 344 272 193 310 303
12 12 10 5 360 11 14 16 18 14 0 343 352 310 338 25 65 65 78 87 124 177 229 307 17 294 291 316 284 283 297 141 215 205 268 312 246 264 234 205 215 184 229 216 288 258 297
2 359 2 356 347 337 341 350 352 4 7 17 21 314 335 341 314 86 127 149 163 166 178 192 276 288 285 305 273 273 265 277 189 237 292 47 299 274 257 120 287 270 264 255 277 298 262
343 349 345 351 347 337 337 345 355 359 9 352 310 256 342 65 75 113 135 150 206 174 196 188 205 225 212 262 277 247 273 161 204 231 329 72 236 298 166 161 177 229 216 236 269 316 252
329 332 337 337 346 342 337 344 5 1 0 2 333 311 359 68 57 219 176 193 196 213 225 217 226 214 216 233 221 268 262 253 198 229 209 257 257 244 261 294 306 278 243 224 229 253 269
313 315 325 328 331 339 337 337 349 6 2 14 358 43 309 269 128 147 287 179 213 206 229 213 218 231 215 247 229 236 246 261 218 208 212 250 269 268 270 275 274 269 265 252 231 227 257
323 304 312 322 323 325 327 328 338 351 9 34 334 303 313 271 275 212 164 198 228 226 216 233 240 240 230 251 266 297 264 244 265 172 212 206 269 303 293 273 263 262 253 244 242 245 239
344 316 303 308 316 319 315 312 318 335 1 56 347 339 300 150 201 228 237 250 223 204 221 253 283 271 249 270 295 290 278 264 269 248 216 236 272 320 271 321 305 279 252 223 222 227 228
331 338 310 298 304 307 311 304 300 308 323 351 343 334 293 256 236 230 230 226 239 235 267 263 241 248 320 311 298 273 261 257 252 244 237 247 242 261 284 306 253 52 38 337 218 244 229
322 319 322 298 292 300 297 303 296 291 292 295 309 324 284 284 287 261 241 245 248 240 245 256 248 245 280 310 289 294 203 236 234 229 234 230 244 273 272 289 278 288 173 191 190 293 224
306 308 306 307 290 286 291 288 290 285 280 277 269 253 238 299 288 261 267 243 250 240 236 235 250 242 227 252 246 261 266 359 195 181 264 216 230 240 252 280 275 58 144 156 170 248 156
293 296 296 296 296 284 282 276 273 277 273 267 266 254 230 252 255 225 234 270 229 245 268 176 188 186 195 223 242 244 254 101 247 228 173 182 210 225 234 262 277 280 145 152 246 107 164
282 284 285 286 288 287 286 275 266 266 266 264 262 252 241 258 264 255 239 223 240 234 259 122 211 198 189 221 241 239 247 205 260 225 188 194 196 203 206 234 258 140 133 210 58 110 193
275 278 281 277 278 281 280 281 266 258 262 258 260 257 250 244 258 256 252 247 239 243 260 225 287 209 223 233 235 291 249 235 251 258 201 239 215 234 210 229 85 197 232 224 249 241 248
Height
1494 1489 1485 1481 1475 1470 1467 1463 1461 1459 1460 1462 1464 1467 1470 1471 1473 1475 1477 1481 1490 1494 1496 1500 1503 1506 1509 1512 1522 1521 1520 1519 1520 1520 1522 1522 1522 1522 1520 1522 1524 1522 1521 1524 1524 1525 1525
1499 1494 1490 1485 1480 1476 1471 1467 1466 1465 1465 1467 1468 1470 1471 1472 1474 1476 1477 1483 1491 1496 1502 1505 1506 1509 1512 1514 1523 1523 1523 1522 1522 1522 1522 1524 1526 1525 1524 1524 1525 1526 1525 1523 1523 1524 1524
1503 1498 1494 1489 1485 1481 1477 1473 1471 1470 1470 1470 1472 1475 1476 1477 1477 1480 1484 1488 1494 1499 1505 1507 1509 1511 1511 1521 1525 1525 1523 1523 1523 1524 1524 1525 1525 1527 1527 1527 1529 1527 1524 1517 1518 1520 1522
1507 1503 1498 1492 1487 1486 1485 1481 1477 1475 1474 1474 1475 1477 1479 1480 1482 1484 1488 1488 1498 1503 1507 1508 1510 1512 1521 1524 1526 1527 1527 1527 1526 1525 1526 1525 1527 1528 1529 1530 1528 1524 1522 1510 1516 1519 1520
1512 1508 1503 1498 1491 1490 1490 1487 1482 1480 1478 1477 1477 1478 1481 1483 1486 1490 1496 1497 1502 1506 1509 1511 1514 1516 1526 1527 1529 1529 1528 1529 1528 1528 1528 1528 1529 1531 1532 1527 1520 1518 1508 1505 1509 1518 1521
1517 1513 1509 1506 1501 1497 1495 1493 1490 1487 1483 1481 1480 1481 1485 1488 1491 1493 1500 1504 1507 1511 1513 1515 1519 1522 1530 1531 1530 1530 1530 1530 1530 1530 1532 1532 1532 1529 1527 1525 1516 1522 1520 1515 1516 1513 1514
1523 1520 1516 1513 1509 1506 1502 1498 1496 1494 1491 1489 1488 1488 1489 1490 1496 1501 1505 1507 1516 1518 1518 1524 1528 1527 1530 1531 1532 1533 1531 1531 1532 1531 1529 1533 1535 1527 1531 1531 1532 1532 1527 1521 1512 1511 1515
1527 1525 1522 1520 1517 1512 1509 1507 1505 1503 1501 1498 1498 1497 1499 1500 1505 1507 1509 1509 1511 1521 1529 1531 1532 1533 1534 1533 1534 1534 1534 1534 1531 1532 1531 1531 1532 1533 1535 1535 1533 1532 1528 1515 1512 1513 1513
1532 1529 1527 1524 1521 1518 1515 1514 1512 1511 1509 1509 1511 1511 1510 1512 1512 1514 1515 1517 1520 1522 1527 1537 1538 1537 1536 1536 1536 1537 1536 1535 1534 1534 1532 1529 1532 1536 1535 1531 1527 1520 1518 1518 1525 1517 1504
1537 1534 1532 1528 1525 1523 1521 1519 1517 1516 1516 1516 1516 1517 1518 1519 1523 1522 1523 1525 1525 1525 1527 1540 1539 1539 1539 1538 1538 1538 1536 1537 1534 1534 1533 1532 1535 1535 1533 1529 1525 1518 1522 1526 1527 1524 1509
1542 1538 1535 1533 1530 1528 1525 1522 1520 1519 1519 1520 1521 1521 1523 1523 1524 1526 1528 1526 1525 1526 1526 1542 1540 1540 1538 1539 1540 1537 1536 1535 1535 1535 1536 1533 1531 1532 1531 1524 1527 1523 1527 1526 1527 1527 1523
1546 1543 1540 1536 1534 1531 1529 1526 1524 1522 1521 1522 1524 1525 1525 1526 1527 1527 1527 1525 1526 1531 1541 1546 1541 1539 1537 1538 1537 1535 1535 1535 1535 1534 1533 1532 1534 1534 1528 1529 1528 1526 1525 1524 1522 1527 1517
1549 1546 1544 1541 1537 1535 1532 1531 1529 1528 1526 1525 1526 1528 1529 1528 1529 1527 1526 1526 1533 1531 1547 1543 1540 1539 1536 1534 1532 1534 1532 1529 1531 1538 1536 1527 1527 1530 1532 1527 1526 1529 1530 1514 1513 1513 1493
1552 1550 1547 1545 1542 1538 1537 1535 1535 1533 1531 1530 1528 1529 1531 1530 1529 1528 1527 1526 1534 1542 1541 1541 1540 1536 1534 1534 1533 1533 1531 1528 1533 1534 1535 1529 1525 1526 1526 1525 1525 1524 1530 1523 1518 1496 1492
1554 1552 1551 1548 1546 1543 1539 1539 1536 1535 1535 1533 1533 1532 1531 1529 1528 1527 1528 1532 1541 1539 1540 1538 1536 1533 1532 1536 1538 1534 1531 1531 1533 1535 1534 1526 1519 1522 1524 1523 1525 1518 1523 1521 1522 1501 1507
1555 1554 1553 1552 1549 1546 1544 1540 1538 1536 1535 1535 1534 1532 1530 1529 1527 1527 1529 1537 1541 1543 1542 1541 1536 1538 1533 1533 1536 1533 1529 1531 1533 1536 1535 1528 1531 1516 1519 1523 1522 1521 1520 1519 1522 1510 1498
1556 1554 1553 1553 1552 1549 1546 1544 1540 1537 1534 1533 1533 1533 1530 1529 1529 1530 1535 1539 1542 1544 1544 1542 1539 1538 1536 1536 1535 1530 1528 1531 1533 1534 1535 1531 1532 1518 1519 1516 1508 1520 1512 1513 1512 1503 1496
1558 1555 1554 1552 1551 1550 1548 1545 1543 1538 1535 1534 1532 1533 1531 1531 1532 1528 1531 1535 1538 1539 1542 1542 1542 1540 1538 1537 1534 1531 1529 1528 1533 1533 1529 1529 1525 1521 1508 1508 1511 1510 1507 1508 1510 1495 1491
1557 1556 1554 1552 1550 1548 1547 1545 1543 1540 1537 1536 1535 1532 1531 1532 1532 1530 1536 1535 1537 1539 1538 1540 1539 1540 1538 1537 1537 1531 1529 1530 1531 1531 1528 1528 1523 1521 1502 1510 1512 1509 1505 1506 1506 1510 1502
1557 1555 1554 1552 1550 1549 1547 1545 1543 1541 1539 1537 1538 1537 1534 1532 1534 1532 1535 1536 1536 1536 1536 1538 1537 1539 1537 1532 1531 1528 1527 1527 1531 1530 1531 1531 1522 1518 1509 1497 1500 1503 1500 1503 1507 1506 1485
1556 1554 1553 1551 1549 1549 1548 1546 1544 1541 1539 1538 1539 1538 1539 1534 1533 1534 1537 1534 1534 1536 1539 1538 1535 1531 1528 1527 1527 1526 1524 1525 1526 1528 1530 1529 1521 1514 1509 1502 1500 1497 1495 1494 1497 1497 1491
1553 1552 1551 1550 1549 1547 1547 1546 1545 1543 1540 1541 1541 1540 1538 1538 1539 1536 1534 1532 1532 1534 1536 1533 1533 1526 1528 1528 1523 1521 1523 1522 1519 1525 1525 1526 1520 1511 1505 1490 1489 1489 1482 1481 1481 1479 1479
1550 1549 1549 1548 1548 1546 1545 1545 1545 1544 1542 1540 1542 1541 1540 1536 1536 1536 1529 1529 1529 1531 1530 1532 1532 1530 1529 1529 1527 1525 1523 1521 1521 1521 1520 1520 1517 1510 1497 1485 1483 1474 1455 1464 1466 1462 1463
1548 1547 1546 1546 1545 1544 1543 1543 1543 1543 1543 1542 1540 1541 1541 1531 1535 1532 1533 1533 1533 1532 1531 1530 1531 1531 1529 1528 1526 1521 1520 1519 1518 1516 1518 1514 1515 1513 1499 1485 1480 1456 1459 1456 1457 1456 1456
1546 1545 1543 1542 1542 1541 1541 1540 1540 1541 1541 1541 1540 1540 1540 1533 1532 1530 1530 1529 1528 1528 1529 1528 1528 1529 1527 1528 1522 1510 1505 1512 1508 1512 1513 1517 1516 1510 1503 1488 1461 1444 1457 1460 1459 1446 1445
1543 1541 1540 1539 1538 1538 1538 1537 1537 1538 1539 1539 1538 1538 1538 1537 1526 1530 1530 1529 1525 1522 1523 1525 1525 1525 1527 1524 1520 1513 1500 1495 1498 1513 1517 1516 1515 1510 1501 1502 1470 1448 1456 1457 1457 1449 1445
1539 1538 1537 1536 1535 1534 1534 1533 1533 1533 1535 1536 1536 1537 1536 1534 1525 1526 1527 1526 1527 1525 1520 1521 1522 1524 1525 1519 1516 1509 1499 1500 1495 1493 1510 1513 1513 1508 1505 1496 1466 1446 1454 1458 1456 1443 1443
1534 1533 1533 1532 1531 1530 1529 1529 1529 1529 1530 1531 1531 1532 1534 1531 1524 1521 1521 1521 1523 1523 1518 1520 1520 1519 1521 1517 1510 1502 1498 1491 1496 1484 1490 1490 1493 1495 1493 1485 1476 1450 1457 1454 1442 1444 1445
1527 1527 1527 1527 1527 1527 1525 1523 1523 1524 1524 1526 1526 1527 1527 1527 1521 1516 1515 1515 1516 1519 1521 1518 1514 1514 1511 1508 1504 1502 1499 1495 1488 1479 1482 1483 1467 1462 1466 1454 1444 1444 1439 1439 1440 1438 1438